Wetterdaten: Samstag, 06.09.2014
Datum Zeit Temperatur Luftfeuchte Luftdruck Regen Wind Richtung Richtung Taupunkt Windchill Windben
06.09.2014 00:00 14,1 C 88 % 1017,8 hPa 0,0 l/m 0,0 km/h (0 Bft) W-NW 292 12,1 C 25,5 C 0,0 km/h (0 Bft)
06.09.2014 00:05 13,9 C 88 % 1017,8 hPa 0,0 l/m 0,0 km/h (0 Bft) W-NW 292 11,9 C 25,5 C 0,0 km/h (0 Bft)
06.09.2014 00:10 13,8 C 88 % 1017,8 hPa 0,0 l/m 0,0 km/h (0 Bft) W-NW 292 11,8 C 25,5 C 0,0 km/h (0 Bft)
06.09.2014 00:15 13,7 C 88 % 1017,9 hPa 0,0 l/m 0,0 km/h (0 Bft) W-NW 292 11,7 C 25,5 C 0,0 km/h (0 Bft)
06.09.2014 00:20 13,9 C 88 % 1017,9 hPa 0,0 l/m 0,0 km/h (0 Bft) W-NW 292 11,9 C 25,5 C 0,0 km/h (0 Bft)
06.09.2014 00:25 13,6 C 88 % 1017,9 hPa 0,0 l/m 0,0 km/h (0 Bft) W-NW 292 11,6 C 25,5 C 0,0 km/h (0 Bft)
06.09.2014 00:30 13,3 C 88 % 1017,9 hPa 0,0 l/m 0,0 km/h (0 Bft) W-NW 292 11,4 C 25,5 C 0,0 km/h (0 Bft)
06.09.2014 00:33 12,9 C 89 % 1017,8 hPa 0,0 l/m 0,0 km/h (0 Bft) W-NW 292 11,1 C 25,5 C 0,0 km/h (0 Bft)
06.09.2014 00:35 12,9 C 89 % 1017,8 hPa 0,0 l/m 0,0 km/h (0 Bft) W-NW 292 11,1 C 25,5 C 0,0 km/h (0 Bft)
06.09.2014 00:40 13,0 C 88 % 1017,8 hPa 0,0 l/m 0,0 km/h (0 Bft) W-NW 292 11,1 C 25,5 C 0,0 km/h (0 Bft)
06.09.2014 00:45 12,7 C 89 % 1017,8 hPa 0,0 l/m 0,0 km/h (0 Bft) W-NW 292 10,9 C 25,5 C 0,0 km/h (0 Bft)
06.09.2014 00:50 12,4 C 89 % 1017,8 hPa 0,0 l/m 0,0 km/h (0 Bft) W-NW 292 10,6 C 25,5 C 0,0 km/h (0 Bft)
06.09.2014 00:55 12,3 C 89 % 1017,6 hPa 0,0 l/m 0,0 km/h (0 Bft) W-NW 292 10,5 C 25,5 C 0,0 km/h (0 Bft)
06.09.2014 01:00 12,2 C 89 % 1017,6 hPa 0,0 l/m 0,0 km/h (0 Bft) W-NW 292 10,4 C 25,5 C 0,0 km/h (0 Bft)
06.09.2014 01:05 12,1 C 89 % 1017,6 hPa 0,0 l/m 0,0 km/h (0 Bft) W-NW 292 10,3 C 25,5 C 0,0 km/h (0 Bft)
06.09.2014 01:10 12,3 C 89 % 1017,6 hPa 0,0 l/m 0,0 km/h (0 Bft) W-NW 292 10,5 C 25,5 C 0,0 km/h (0 Bft)
06.09.2014 01:15 12,0 C 89 % 1017,6 hPa 0,0 l/m 0,0 km/h (0 Bft) W-NW 292 10,2 C 25,5 C 0,0 km/h (0 Bft)
06.09.2014 01:20 11,9 C 90 % 1017,6 hPa 0,0 l/m 0,0 km/h (0 Bft) W-NW 292 10,3 C 25,5 C 0,0 km/h (0 Bft)
06.09.2014 01:25 11,9 C 90 % 1017,6 hPa 0,0 l/m 0,0 km/h (0 Bft) W-NW 292 10,3 C 25,5 C 0,0 km/h (0 Bft)
06.09.2014 01:30 11,8 C 90 % 1017,6 hPa 0,0 l/m 0,0 km/h (0 Bft) W-NW 292 10,2 C 25,5 C 0,0 km/h (0 Bft)
06.09.2014 01:35 12,0 C 89 % 1017,4 hPa 0,0 l/m 0,0 km/h (0 Bft) W-NW 292 10,2 C 25,5 C 0,0 km/h (0 Bft)
06.09.2014 01:40 12,1 C 90 % 1017,4 hPa 0,0 l/m 0,0 km/h (0 Bft) W-NW 292 10,5 C 25,5 C 0,0 km/h (0 Bft)
06.09.2014 01:45 12,1 C 90 % 1017,4 hPa 0,0 l/m 0,0 km/h (0 Bft) W-NW 292 10,5 C 25,5 C 0,0 km/h (0 Bft)
06.09.2014 01:50 12,1 C 91 % 1017,4 hPa 0,0 l/m 0,0 km/h (0 Bft) W-NW 292 10,7 C 25,5 C 0,0 km/h (0 Bft)
06.09.2014 01:55 12,3 C 91 % 1017,3 hPa 0,0 l/m 0,0 km/h (0 Bft) S 180 10,9 C 12,2 C 0,0 km/h (0 Bft)
06.09.2014 02:00 12,3 C 91 % 1017,3 hPa 0,0 l/m 0,0 km/h (0 Bft) SO 135 10,9 C 12,2 C 0,0 km/h (0 Bft)
06.09.2014 02:05 12,4 C 91 % 1017,3 hPa 0,0 l/m 0,0 km/h (0 Bft) S-SO 157 11,0 C 12,3 C 0,0 km/h (0 Bft)
06.09.2014 02:10 12,5 C 91 % 1017,3 hPa 0,0 l/m 0,0 km/h (0 Bft) W-SW 247 11,1 C 12,4 C 0,0 km/h (0 Bft)
06.09.2014 02:15 12,6 C 91 % 1017,4 hPa 0,0 l/m 0,0 km/h (0 Bft) O-SO 112 11,2 C 12,5 C 0,0 km/h (0 Bft)
06.09.2014 02:20 12,6 C 91 % 1017,4 hPa 0,0 l/m 0,0 km/h (0 Bft) NO 45 11,2 C 12,5 C 0,0 km/h (0 Bft)
06.09.2014 02:25 12,6 C 91 % 1017,4 hPa 0,0 l/m 0,0 km/h (0 Bft) NW 315 11,2 C 12,6 C 0,0 km/h (0 Bft)
06.09.2014 02:30 12,5 C 91 % 1017,4 hPa 0,0 l/m 0,0 km/h (0 Bft) NW 315 11,1 C 12,6 C 0,0 km/h (0 Bft)
06.09.2014 02:35 12,5 C 91 % 1017,2 hPa 0,0 l/m 0,0 km/h (0 Bft) NW 315 11,1 C 12,5 C 0,0 km/h (0 Bft)
06.09.2014 02:40 12,5 C 91 % 1017,2 hPa 0,0 l/m 0,0 km/h (0 Bft) W-SW 247 11,1 C 12,5 C 0,0 km/h (0 Bft)
06.09.2014 02:45 12,5 C 91 % 1017,2 hPa 0,0 l/m 0,0 km/h (0 Bft) SO 135 11,1 C 12,4 C 0,0 km/h (0 Bft)
06.09.2014 02:50 12,5 C 91 % 1017,2 hPa 0,0 l/m 0,0 km/h (0 Bft) S-SO 157 11,1 C 12,4 C 0,0 km/h (0 Bft)
06.09.2014 02:55 12,6 C 91 % 1017,1 hPa 0,0 l/m 0,0 km/h (0 Bft) W 270 11,2 C 12,5 C 0,0 km/h (0 Bft)
06.09.2014 03:00 12,7 C 92 % 1017,1 hPa 0,0 l/m 0,0 km/h (0 Bft) SW 225 11,4 C 12,6 C 0,0 km/h (0 Bft)
06.09.2014 03:05 12,7 C 92 % 1017,1 hPa 0,0 l/m 0,0 km/h (0 Bft) W-SW 247 11,4 C 12,6 C 0,0 km/h (0 Bft)
06.09.2014 03:10 12,7 C 92 % 1017,1 hPa 0,0 l/m 0,0 km/h (0 Bft) W-SW 247 11,4 C 12,6 C 0,0 km/h (0 Bft)
06.09.2014 03:15 12,6 C 92 % 1017,1 hPa 0,0 l/m 0,0 km/h (0 Bft) O-NO 67 11,3 C 12,6 C 0,0 km/h (0 Bft)
06.09.2014 03:20 12,6 C 92 % 1017,1 hPa 0,0 l/m 0,0 km/h (0 Bft) O-NO 67 11,3 C 12,6 C 0,0 km/h (0 Bft)
06.09.2014 03:25 12,6 C 92 % 1017,1 hPa 0,0 l/m 0,0 km/h (0 Bft) NW 315 11,3 C 12,5 C 0,0 km/h (0 Bft)
06.09.2014 03:30 12,5 C 92 % 1017,1 hPa 0,0 l/m 0,0 km/h (0 Bft) NW 315 11,2 C 12,5 C 0,0 km/h (0 Bft)
06.09.2014 03:35 12,5 C 92 % 1017,0 hPa 0,0 l/m 0,0 km/h (0 Bft) N-NW 337 11,2 C 12,5 C 0,0 km/h (0 Bft)
06.09.2014 03:40 12,4 C 92 % 1017,0 hPa 0,0 l/m 0,0 km/h (0 Bft) N-NO 22 11,1 C 12,4 C 0,0 km/h (0 Bft)
06.09.2014 03:45 12,5 C 92 % 1017,0 hPa 0,0 l/m 0,0 km/h (0 Bft) O-NO 67 11,2 C 12,3 C 0,0 km/h (0 Bft)
06.09.2014 03:50 12,5 C 92 % 1017,0 hPa 0,0 l/m 0,0 km/h (0 Bft) S 180 11,2 C 12,3 C 0,0 km/h (0 Bft)
06.09.2014 03:55 12,5 C 92 % 1017,0 hPa 0,0 l/m 0,0 km/h (0 Bft) S 180 11,2 C 12,3 C 0,0 km/h (0 Bft)
06.09.2014 04:00 12,4 C 92 % 1017,0 hPa 0,0 l/m 0,0 km/h (0 Bft) S 180 11,1 C 12,3 C 0,0 km/h (0 Bft)
06.09.2014 04:05 12,3 C 92 % 1017,0 hPa 0,0 l/m 0,0 km/h (0 Bft) S 180 11,0 C 12,2 C 0,0 km/h (0 Bft)
06.09.2014 04:10 12,3 C 92 % 1017,0 hPa 0,0 l/m 0,0 km/h (0 Bft) S-SO 157 11,0 C 12,2 C 0,0 km/h (0 Bft)
06.09.2014 04:15 12,5 C 92 % 1017,1 hPa 0,0 l/m 0,0 km/h (0 Bft) SO 135 11,2 C 12,2 C 0,0 km/h (0 Bft)
06.09.2014 04:20 12,5 C 92 % 1017,1 hPa 0,0 l/m 0,0 km/h (0 Bft) SO 135 11,2 C 12,2 C 0,0 km/h (0 Bft)
06.09.2014 04:25 12,4 C 92 % 1017,1 hPa 0,0 l/m 0,0 km/h (0 Bft) SO 135 11,1 C 12,2 C 0,0 km/h (0 Bft)
06.09.2014 04:30 12,3 C 92 % 1017,1 hPa 0,0 l/m 0,0 km/h (0 Bft) SO 135 11,0 C 12,2 C 0,0 km/h (0 Bft)
06.09.2014 04:35 12,3 C 92 % 1017,1 hPa 0,0 l/m 0,0 km/h (0 Bft) O-SO 112 11,0 C 12,2 C 0,0 km/h (0 Bft)
06.09.2014 04:40 12,3 C 92 % 1017,1 hPa 0,0 l/m 0,0 km/h (0 Bft) SO 135 11,0 C 12,2 C 0,0 km/h (0 Bft)
06.09.2014 04:45 12,3 C 92 % 1017,1 hPa 0,0 l/m 0,0 km/h (0 Bft) O-SO 112 11,0 C 12,2 C 0,0 km/h (0 Bft)
06.09.2014 04:50 12,2 C 92 % 1017,1 hPa 0,0 l/m 0,0 km/h (0 Bft) SO 135 10,9 C 12,2 C 0,0 km/h (0 Bft)
06.09.2014 04:55 12,3 C 92 % 1017,2 hPa 0,0 l/m 0,0 km/h (0 Bft) S-SO 157 11,0 C 12,2 C 0,0 km/h (0 Bft)
06.09.2014 05:00 12,3 C 92 % 1017,2 hPa 0,0 l/m 0,0 km/h (0 Bft) O-NO 67 11,0 C 12,2 C 0,0 km/h (0 Bft)
06.09.2014 05:05 12,3 C 92 % 1017,2 hPa 0,0 l/m 0,0 km/h (0 Bft) O-SO 112 11,0 C 12,2 C 0,0 km/h (0 Bft)
06.09.2014 05:10 12,4 C 92 % 1017,2 hPa 0,0 l/m 0,0 km/h (0 Bft) O-SO 112 11,1 C 12,2 C 0,0 km/h (0 Bft)
06.09.2014 05:15 12,4 C 92 % 1017,2 hPa 0,0 l/m 0,0 km/h (0 Bft) S-SO 157 11,1 C 12,2 C 0,0 km/h (0 Bft)
06.09.2014 05:20 12,5 C 92 % 1017,2 hPa 0,0 l/m 0,0 km/h (0 Bft) S 180 11,2 C 12,2 C 0,0 km/h (0 Bft)
06.09.2014 05:25 12,8 C 93 % 1017,2 hPa 0,0 l/m 0,8 km/h (0 Bft) S 180 11,7 C 12,4 C 2,6 km/h (1 Bft)
06.09.2014 05:30 12,7 C 93 % 1017,2 hPa 0,0 l/m 1,0 km/h (0 Bft) W 270 11,6 C 12,6 C 0,0 km/h (0 Bft)
06.09.2014 05:35 12,7 C 93 % 1017,0 hPa 0,0 l/m 0,2 km/h (0 Bft) W 270 11,6 C 12,6 C 0,0 km/h (0 Bft)
06.09.2014 05:40 12,8 C 93 % 1017,0 hPa 0,0 l/m 0,3 km/h (0 Bft) S 180 11,7 C 12,6 C 4,7 km/h (1 Bft)
06.09.2014 05:45 13,0 C 91 % 1017,0 hPa 0,0 l/m 1,0 km/h (0 Bft) SW 225 11,6 C 12,7 C 2,4 km/h (1 Bft)
06.09.2014 05:50 13,0 C 92 % 1017,0 hPa 0,0 l/m 1,0 km/h (0 Bft) SO 135 11,7 C 12,8 C 0,0 km/h (0 Bft)
06.09.2014 05:55 13,1 C 92 % 1017,0 hPa 0,0 l/m 0,3 km/h (0 Bft) S-SO 157 11,8 C 12,9 C 0,0 km/h (0 Bft)
06.09.2014 06:00 13,2 C 92 % 1017,0 hPa 0,0 l/m 0,3 km/h (0 Bft) S-SO 157 11,9 C 12,9 C 0,0 km/h (0 Bft)
06.09.2014 06:05 13,2 C 92 % 1017,0 hPa 0,0 l/m 0,3 km/h (0 Bft) S 180 11,9 C 13,0 C 0,0 km/h (0 Bft)
06.09.2014 06:10 13,2 C 92 % 1017,0 hPa 0,0 l/m 0,6 km/h (0 Bft) S 180 11,9 C 13,0 C 5,0 km/h (1 Bft)
06.09.2014 06:15 13,4 C 92 % 1016,9 hPa 0,0 l/m 0,8 km/h (0 Bft) S 180 12,1 C 13,1 C 2,1 km/h (1 Bft)
06.09.2014 06:20 13,4 C 91 % 1016,9 hPa 0,0 l/m 1,3 km/h (1 Bft) S 180 12,0 C 13,2 C 4,2 km/h (1 Bft)
06.09.2014 06:25 13,8 C 91 % 1016,9 hPa 0,0 l/m 2,6 km/h (1 Bft) S-SW 202 12,4 C 13,4 C 7,2 km/h (2 Bft)
06.09.2014 06:30 13,8 C 91 % 1016,9 hPa 0,0 l/m 3,7 km/h (1 Bft) S 180 12,4 C 13,6 C 4,8 km/h (1 Bft)
06.09.2014 06:35 13,8 C 91 % 1016,9 hPa 0,0 l/m 3,5 km/h (1 Bft) S-SO 157 12,4 C 13,7 C 0,0 km/h (0 Bft)
06.09.2014 06:40 13,8 C 90 % 1016,9 hPa 0,0 l/m 2,4 km/h (1 Bft) SW 225 12,2 C 13,7 C 1,8 km/h (1 Bft)
06.09.2014 06:45 13,6 C 90 % 1016,9 hPa 0,0 l/m 0,6 km/h (0 Bft) O-SO 112 12,0 C 13,6 C 0,0 km/h (0 Bft)
06.09.2014 06:50 13,5 C 90 % 1016,9 hPa 0,0 l/m 0,2 km/h (0 Bft) SO 135 11,9 C 13,5 C 0,0 km/h (0 Bft)
06.09.2014 06:55 13,6 C 90 % 1016,8 hPa 0,0 l/m 0,0 km/h (0 Bft) SO 135 12,0 C 13,5 C 0,0 km/h (0 Bft)
06.09.2014 07:00 13,6 C 90 % 1016,8 hPa 0,0 l/m 0,0 km/h (0 Bft) SO 135 12,0 C 13,5 C 0,0 km/h (0 Bft)
06.09.2014 07:05 13,6 C 90 % 1016,8 hPa 0,0 l/m 0,0 km/h (0 Bft) O-NO 67 12,0 C 13,5 C 0,0 km/h (0 Bft)
06.09.2014 07:10 13,7 C 90 % 1016,8 hPa 0,0 l/m 0,0 km/h (0 Bft) O-NO 67 12,1 C 13,5 C 0,0 km/h (0 Bft)
06.09.2014 07:15 13,7 C 90 % 1016,8 hPa 0,0 l/m 0,0 km/h (0 Bft) O-NO 67 12,1 C 13,6 C 0,0 km/h (0 Bft)
06.09.2014 07:20 13,9 C 89 % 1016,8 hPa 0,0 l/m 0,0 km/h (0 Bft) O-NO 67 12,1 C 13,8 C 0,0 km/h (0 Bft)
06.09.2014 07:25 14,0 C 89 % 1016,8 hPa 0,0 l/m 0,0 km/h (0 Bft) O-NO 67 12,2 C 14,1 C 0,0 km/h (0 Bft)
06.09.2014 07:30 14,2 C 89 % 1016,8 hPa 0,0 l/m 0,0 km/h (0 Bft) W 270 12,4 C 14,3 C 0,0 km/h (0 Bft)
06.09.2014 07:35 14,6 C 89 % 1016,9 hPa 0,0 l/m 0,0 km/h (0 Bft) W 270 12,8 C 14,9 C 0,0 km/h (0 Bft)
06.09.2014 07:40 14,8 C 89 % 1016,9 hPa 0,0 l/m 0,0 km/h (0 Bft) W 270 13,0 C 15,5 C 0,0 km/h (0 Bft)
06.09.2014 07:45 14,8 C 89 % 1016,9 hPa 0,0 l/m 0,0 km/h (0 Bft) W-SW 247 13,0 C 15,8 C 0,0 km/h (0 Bft)
06.09.2014 07:50 14,9 C 88 % 1016,9 hPa 0,0 l/m 0,0 km/h (0 Bft) S 180 12,9 C 16,0 C 0,0 km/h (0 Bft)
06.09.2014 07:55 15,0 C 88 % 1017,1 hPa 0,0 l/m 0,0 km/h (0 Bft) S 180 13,0 C 15,9 C 0,0 km/h (0 Bft)
06.09.2014 08:00 15,0 C 88 % 1017,1 hPa 0,0 l/m 0,0 km/h (0 Bft) S 180 13,0 C 15,8 C 0,0 km/h (0 Bft)
06.09.2014 08:05 15,5 C 88 % 1017,1 hPa 0,0 l/m 0,0 km/h (0 Bft) S-SW 202 13,5 C 15,9 C 0,0 km/h (0 Bft)
06.09.2014 08:10 15,6 C 87 % 1017,1 hPa 0,0 l/m 0,0 km/h (0 Bft) S 180 13,4 C 16,2 C 0,0 km/h (0 Bft)
06.09.2014 08:15 16,3 C 86 % 1017,2 hPa 0,0 l/m 0,0 km/h (0 Bft) W-NW 292 14,0 C 17,2 C 0,0 km/h (0 Bft)
06.09.2014 08:20 16,2 C 86 % 1017,2 hPa 0,0 l/m 0,0 km/h (0 Bft) N-NO 22 13,9 C 17,4 C 0,0 km/h (0 Bft)
06.09.2014 08:25 16,2 C 85 % 1017,2 hPa 0,0 l/m 0,0 km/h (0 Bft) N 360 13,7 C 17,3 C 0,0 km/h (0 Bft)
06.09.2014 08:30 16,1 C 85 % 1017,2 hPa 0,0 l/m 0,0 km/h (0 Bft) NW 315 13,6 C 17,3 C 0,0 km/h (0 Bft)
06.09.2014 08:35 16,2 C 85 % 1017,3 hPa 0,0 l/m 0,0 km/h (0 Bft) N-NO 22 13,7 C 17,4 C 0,0 km/h (0 Bft)
06.09.2014 08:40 16,4 C 84 % 1017,3 hPa 0,0 l/m 0,0 km/h (0 Bft) N 360 13,7 C 17,5 C 0,0 km/h (0 Bft)
06.09.2014 08:45 16,7 C 84 % 1017,3 hPa 0,0 l/m 0,0 km/h (0 Bft) SO 135 14,0 C 17,7 C 0,0 km/h (0 Bft)
06.09.2014 08:50 17,2 C 83 % 1017,3 hPa 0,0 l/m 0,0 km/h (0 Bft) O-SO 112 14,3 C 18,0 C 0,0 km/h (0 Bft)
06.09.2014 08:55 20,0 C 82 % 1017,4 hPa 0,0 l/m 0,0 km/h (0 Bft) N-NW 337 16,8 C 19,5 C 0,0 km/h (0 Bft)
06.09.2014 09:00 20,7 C 77 % 1017,4 hPa 0,0 l/m 0,0 km/h (0 Bft) NO 45 16,5 C 21,3 C 0,0 km/h (0 Bft)
06.09.2014 09:05 19,5 C 77 % 1017,4 hPa 0,0 l/m 0,8 km/h (0 Bft) N-NW 337 15,4 C 21,7 C 2,7 km/h (1 Bft)
06.09.2014 09:10 19,2 C 76 % 1017,4 hPa 0,0 l/m 1,4 km/h (1 Bft) NW 315 14,9 C 21,1 C 3,4 km/h (1 Bft)
06.09.2014 09:15 18,8 C 76 % 1017,4 hPa 0,0 l/m 1,4 km/h (1 Bft) N-NO 22 14,5 C 20,2 C 0,0 km/h (0 Bft)
06.09.2014 09:20 18,5 C 75 % 1017,4 hPa 0,0 l/m 1,0 km/h (0 Bft) W-NW 292 14,0 C 19,8 C 0,0 km/h (0 Bft)
06.09.2014 09:25 18,2 C 76 % 1017,4 hPa 0,0 l/m 0,2 km/h (0 Bft) NW 315 13,9 C 19,6 C 0,0 km/h (0 Bft)
06.09.2014 09:30 18,6 C 76 % 1017,4 hPa 0,0 l/m 0,0 km/h (0 Bft) NW 315 14,3 C 19,6 C 0,0 km/h (0 Bft)
06.09.2014 09:35 19,0 C 75 % 1017,6 hPa 0,0 l/m 0,2 km/h (0 Bft) NW 315 14,5 C 19,7 C 0,0 km/h (0 Bft)
06.09.2014 09:40 19,4 C 75 % 1017,6 hPa 0,0 l/m 0,2 km/h (0 Bft) N-NW 337 14,8 C 20,0 C 0,0 km/h (0 Bft)
06.09.2014 09:45 19,6 C 74 % 1017,6 hPa 0,0 l/m 0,2 km/h (0 Bft) W-NW 292 14,8 C 20,4 C 0,0 km/h (0 Bft)
06.09.2014 09:50 20,0 C 73 % 1017,6 hPa 0,0 l/m 0,2 km/h (0 Bft) N-NW 337 15,0 C 20,8 C 0,0 km/h (0 Bft)
06.09.2014 09:55 20,5 C 71 % 1017,6 hPa 0,0 l/m 0,2 km/h (0 Bft) N 360 15,1 C 21,4 C 1,8 km/h (1 Bft)
06.09.2014 10:00 20,1 C 70 % 1017,6 hPa 0,0 l/m 0,2 km/h (0 Bft) N-NO 22 14,5 C 21,7 C 0,0 km/h (0 Bft)
06.09.2014 10:05 20,1 C 66 % 1017,6 hPa 0,0 l/m 0,2 km/h (0 Bft) NW 315 13,5 C 22,0 C 0,0 km/h (0 Bft)
06.09.2014 10:10 19,8 C 68 % 1017,6 hPa 0,0 l/m 0,0 km/h (0 Bft) S-SO 157 13,7 C 22,4 C 0,0 km/h (0 Bft)
06.09.2014 10:15 19,9 C 68 % 1017,8 hPa 0,0 l/m 0,0 km/h (0 Bft) N-NO 22 13,8 C 22,4 C 0,0 km/h (0 Bft)
06.09.2014 10:20 20,1 C 66 % 1017,8 hPa 0,0 l/m 0,0 km/h (0 Bft) N-NO 22 13,5 C 22,6 C 0,0 km/h (0 Bft)
06.09.2014 10:25 20,7 C 67 % 1017,8 hPa 0,0 l/m 0,0 km/h (0 Bft) N-NO 22 14,3 C 23,2 C 0,0 km/h (0 Bft)
06.09.2014 10:29 21,1 C 65 % 1017,8 hPa 0,0 l/m 0,3 km/h (0 Bft) NW 315 14,3 C 23,5 C 1,8 km/h (1 Bft)
06.09.2014 10:30 21,1 C 65 % 1017,8 hPa 0,0 l/m 0,3 km/h (0 Bft) NW 315 14,3 C 23,5 C 1,8 km/h (1 Bft)
06.09.2014 10:35 21,4 C 59 % 1017,9 hPa 0,0 l/m 1,6 km/h (1 Bft) NW 315 13,0 C 23,3 C 4,5 km/h (1 Bft)
06.09.2014 10:40 21,7 C 59 % 1017,9 hPa 0,0 l/m 2,4 km/h (1 Bft) W 270 13,3 C 23,5 C 5,1 km/h (1 Bft)
06.09.2014 10:45 21,9 C 60 % 1017,9 hPa 0,0 l/m 2,4 km/h (1 Bft) W 270 13,8 C 23,6 C 4,5 km/h (1 Bft)
06.09.2014 10:50 21,7 C 58 % 1017,9 hPa 0,0 l/m 2,1 km/h (1 Bft) NW 315 13,1 C 23,6 C 3,5 km/h (1 Bft)
06.09.2014 10:55 20,9 C 60 % 1018,0 hPa 0,0 l/m 1,4 km/h (1 Bft) N-NW 337 12,8 C 23,1 C 0,0 km/h (0 Bft)
06.09.2014 11:00 20,7 C 63 % 1018,0 hPa 0,0 l/m 1,0 km/h (0 Bft) N-NO 22 13,4 C 22,6 C 0,0 km/h (0 Bft)
06.09.2014 11:05 20,8 C 63 % 1018,0 hPa 0,0 l/m 0,3 km/h (0 Bft) N 360 13,5 C 22,3 C 2,7 km/h (1 Bft)
06.09.2014 11:10 20,9 C 63 % 1018,0 hPa 0,0 l/m 0,3 km/h (0 Bft) N-NO 22 13,6 C 22,3 C 0,0 km/h (0 Bft)
06.09.2014 11:15 21,2 C 61 % 1018,1 hPa 0,0 l/m 0,3 km/h (0 Bft) SO 135 13,4 C 22,7 C 0,0 km/h (0 Bft)
06.09.2014 11:20 21,4 C 62 % 1018,1 hPa 0,0 l/m 0,0 km/h (0 Bft) N-NO 22 13,8 C 23,2 C 0,0 km/h (0 Bft)
06.09.2014 11:25 21,8 C 61 % 1018,1 hPa 0,0 l/m 0,2 km/h (0 Bft) NW 315 13,9 C 23,7 C 0,0 km/h (0 Bft)
06.09.2014 11:30 22,2 C 59 % 1018,1 hPa 0,0 l/m 0,2 km/h (0 Bft) NW 315 13,8 C 24,2 C 0,0 km/h (0 Bft)
06.09.2014 11:35 22,4 C 58 % 1018,1 hPa 0,0 l/m 0,5 km/h (0 Bft) W-SW 247 13,7 C 24,9 C 2,3 km/h (1 Bft)
06.09.2014 11:40 22,7 C 59 % 1018,1 hPa 0,0 l/m 1,1 km/h (1 Bft) W-NW 292 14,3 C 24,9 C 2,6 km/h (1 Bft)
06.09.2014 11:45 22,2 C 57 % 1018,1 hPa 0,0 l/m 2,4 km/h (1 Bft) NW 315 13,3 C 24,5 C 2,7 km/h (1 Bft)
06.09.2014 11:50 22,0 C 59 % 1018,1 hPa 0,0 l/m 2,1 km/h (1 Bft) W 270 13,6 C 24,2 C 0,0 km/h (0 Bft)
06.09.2014 11:55 22,9 C 58 % 1018,1 hPa 0,0 l/m 1,0 km/h (0 Bft) N-NO 22 14,2 C 24,3 C 0,0 km/h (0 Bft)
06.09.2014 12:00 23,9 C 56 % 1018,1 hPa 0,0 l/m 0,6 km/h (0 Bft) N-NO 22 14,6 C 24,8 C 1,9 km/h (1 Bft)
06.09.2014 12:05 25,2 C 51 % 1018,1 hPa 0,0 l/m 0,5 km/h (0 Bft) NO 45 14,3 C 26,5 C 2,1 km/h (1 Bft)
06.09.2014 12:10 25,4 C 49 % 1018,1 hPa 0,0 l/m 1,1 km/h (1 Bft) NW 315 13,9 C 27,8 C 2,7 km/h (1 Bft)
06.09.2014 12:15 25,7 C 45 % 1018,1 hPa 0,0 l/m 2,7 km/h (1 Bft) W-NW 292 12,9 C 28,0 C 2,6 km/h (1 Bft)
06.09.2014 12:20 25,9 C 46 % 1018,1 hPa 0,0 l/m 3,2 km/h (1 Bft) W-SW 247 13,4 C 28,3 C 5,8 km/h (2 Bft)
06.09.2014 12:25 26,8 C 47 % 1018,1 hPa 0,0 l/m 1,6 km/h (1 Bft) W-NW 292 14,5 C 29,2 C 0,0 km/h (0 Bft)
06.09.2014 12:30 26,1 C 43 % 1018,1 hPa 0,0 l/m 1,9 km/h (1 Bft) W-SW 247 12,5 C 29,9 C 4,3 km/h (1 Bft)
06.09.2014 12:35 24,7 C 48 % 1018,1 hPa 0,0 l/m 1,9 km/h (1 Bft) W-SW 247 12,9 C 28,8 C 1,9 km/h (1 Bft)
06.09.2014 12:40 23,8 C 50 % 1018,1 hPa 0,0 l/m 1,4 km/h (1 Bft) S 180 12,7 C 27,7 C 0,0 km/h (0 Bft)
06.09.2014 12:45 23,1 C 52 % 1018,1 hPa 0,0 l/m 1,1 km/h (1 Bft) O-SO 112 12,7 C 26,8 C 3,2 km/h (1 Bft)
06.09.2014 12:50 22,5 C 56 % 1018,1 hPa 0,0 l/m 1,4 km/h (1 Bft) NO 45 13,3 C 25,9 C 0,0 km/h (0 Bft)
06.09.2014 12:55 24,1 C 52 % 1018,1 hPa 0,0 l/m 2,1 km/h (1 Bft) O-NO 67 13,6 C 26,1 C 1,6 km/h (1 Bft)
06.09.2014 13:00 25,8 C 48 % 1018,1 hPa 0,0 l/m 1,8 km/h (1 Bft) SO 135 13,9 C 27,4 C 1,8 km/h (1 Bft)
06.09.2014 13:05 26,0 C 46 % 1018,1 hPa 0,0 l/m 1,8 km/h (1 Bft) O-NO 67 13,5 C 28,8 C 4,3 km/h (1 Bft)
06.09.2014 13:10 25,0 C 44 % 1018,1 hPa 0,0 l/m 2,4 km/h (1 Bft) O-NO 67 11,9 C 28,7 C 2,4 km/h (1 Bft)
06.09.2014 13:15 23,6 C 47 % 1017,9 hPa 0,0 l/m 3,1 km/h (1 Bft) O-SO 112 11,6 C 28,1 C 2,3 km/h (1 Bft)
06.09.2014 13:20 23,5 C 50 % 1017,9 hPa 0,0 l/m 2,4 km/h (1 Bft) NW 315 12,5 C 27,1 C 2,1 km/h (1 Bft)
06.09.2014 13:25 23,9 C 50 % 1017,9 hPa 0,0 l/m 1,4 km/h (1 Bft) O-NO 67 12,8 C 26,8 C 3,9 km/h (1 Bft)
06.09.2014 13:30 22,8 C 55 % 1017,9 hPa 0,0 l/m 1,8 km/h (1 Bft) NO 45 13,3 C 26,5 C 5,1 km/h (1 Bft)
06.09.2014 13:35 23,4 C 55 % 1017,4 hPa 0,0 l/m 3,2 km/h (1 Bft) N-NO 22 13,8 C 25,2 C 9,5 km/h (2 Bft)
06.09.2014 13:40 24,2 C 49 % 1017,4 hPa 0,0 l/m 3,7 km/h (1 Bft) O-NO 67 12,8 C 26,1 C 3,9 km/h (1 Bft)
06.09.2014 13:45 22,8 C 53 % 1017,4 hPa 0,0 l/m 4,2 km/h (1 Bft) O-NO 67 12,7 C 26,6 C 5,1 km/h (1 Bft)
06.09.2014 13:50 21,9 C 57 % 1017,4 hPa 0,0 l/m 3,9 km/h (1 Bft) O 90 13,0 C 25,2 C 5,6 km/h (1 Bft)
06.09.2014 13:55 23,7 C 56 % 1017,8 hPa 0,0 l/m 3,7 km/h (1 Bft) N-NO 22 14,4 C 24,6 C 5,1 km/h (1 Bft)
06.09.2014 14:00 23,0 C 54 % 1017,8 hPa 0,0 l/m 4,0 km/h (1 Bft) NW 315 13,2 C 25,2 C 7,2 km/h (2 Bft)
06.09.2014 14:05 22,0 C 58 % 1017,8 hPa 0,0 l/m 3,7 km/h (1 Bft) N 360 13,3 C 23,9 C 5,1 km/h (1 Bft)
06.09.2014 14:10 22,0 C 61 % 1017,8 hPa 0,0 l/m 2,7 km/h (1 Bft) N-NW 337 14,1 C 23,3 C 4,2 km/h (1 Bft)
06.09.2014 14:15 22,6 C 59 % 1017,8 hPa 0,0 l/m 2,6 km/h (1 Bft) NW 315 14,2 C 23,2 C 1,6 km/h (1 Bft)
06.09.2014 14:20 22,7 C 58 % 1017,8 hPa 0,0 l/m 2,7 km/h (1 Bft) N-NO 22 14,0 C 23,4 C 2,3 km/h (1 Bft)
06.09.2014 14:25 23,7 C 55 % 1017,8 hPa 0,0 l/m 1,8 km/h (1 Bft) N-NO 22 14,1 C 24,3 C 0,0 km/h (0 Bft)
06.09.2014 14:30 23,2 C 53 % 1017,8 hPa 0,0 l/m 2,4 km/h (1 Bft) N-NO 22 13,1 C 24,9 C 3,2 km/h (1 Bft)
06.09.2014 14:35 23,3 C 53 % 1017,5 hPa 0,0 l/m 2,9 km/h (1 Bft) NW 315 13,2 C 25,2 C 3,4 km/h (1 Bft)
06.09.2014 14:40 23,1 C 52 % 1017,5 hPa 0,0 l/m 2,9 km/h (1 Bft) NW 315 12,7 C 25,1 C 3,2 km/h (1 Bft)
06.09.2014 14:45 23,1 C 54 % 1017,5 hPa 0,0 l/m 2,3 km/h (1 Bft) W 270 13,3 C 24,8 C 0,0 km/h (0 Bft)
06.09.2014 14:50 23,9 C 53 % 1017,5 hPa 0,0 l/m 1,4 km/h (1 Bft) NW 315 13,7 C 25,3 C 1,8 km/h (1 Bft)
06.09.2014 14:55 24,3 C 49 % 1017,2 hPa 0,0 l/m 1,3 km/h (1 Bft) N-NW 337 12,9 C 26,3 C 3,1 km/h (1 Bft)
06.09.2014 15:00 23,6 C 49 % 1017,2 hPa 0,0 l/m 2,3 km/h (1 Bft) W-NW 292 12,2 C 26,5 C 2,9 km/h (1 Bft)
06.09.2014 15:05 22,8 C 55 % 1017,2 hPa 0,0 l/m 4,0 km/h (1 Bft) NW 315 13,3 C 25,5 C 4,2 km/h (1 Bft)
06.09.2014 15:10 22,6 C 54 % 1017,2 hPa 0,0 l/m 4,0 km/h (1 Bft) SO 135 12,8 C 24,9 C 1,8 km/h (1 Bft)
06.09.2014 15:15 21,6 C 58 % 1017,1 hPa 0,0 l/m 2,6 km/h (1 Bft) N-NO 22 13,0 C 23,9 C 1,6 km/h (1 Bft)
06.09.2014 15:20 21,2 C 59 % 1017,1 hPa 0,0 l/m 1,8 km/h (1 Bft) O-SO 112 12,9 C 23,5 C 0,0 km/h (0 Bft)
06.09.2014 15:25 20,7 C 62 % 1017,1 hPa 0,0 l/m 0,8 km/h (0 Bft) S-SW 202 13,2 C 23,0 C 0,0 km/h (0 Bft)
06.09.2014 15:28 20,5 C 63 % 1017,1 hPa 0,0 l/m 0,6 km/h (0 Bft) SO 135 13,2 C 22,5 C 0,0 km/h (0 Bft)
06.09.2014 15:30 20,5 C 63 % 1017,1 hPa 0,0 l/m 0,6 km/h (0 Bft) SO 135 13,2 C 22,5 C 0,0 km/h (0 Bft)
06.09.2014 15:35 20,7 C 64 % 1016,9 hPa 0,0 l/m 0,0 km/h (0 Bft) SO 135 13,6 C 22,4 C 0,0 km/h (0 Bft)
06.09.2014 15:40 20,7 C 66 % 1016,9 hPa 0,0 l/m 0,0 km/h (0 Bft) SO 135 14,1 C 22,4 C 0,0 km/h (0 Bft)
06.09.2014 15:45 20,8 C 66 % 1016,9 hPa 0,0 l/m 0,0 km/h (0 Bft) O-SO 112 14,2 C 22,4 C 0,0 km/h (0 Bft)
06.09.2014 15:50 20,7 C 67 % 1016,9 hPa 0,0 l/m 0,0 km/h (0 Bft) S-SO 157 14,3 C 22,4 C 0,0 km/h (0 Bft)
06.09.2014 15:55 20,6 C 66 % 1016,8 hPa 0,0 l/m 0,0 km/h (0 Bft) S 180 14,0 C 22,4 C 0,0 km/h (0 Bft)
06.09.2014 16:00 20,5 C 67 % 1016,8 hPa 0,0 l/m 0,0 km/h (0 Bft) S-SO 157 14,2 C 22,3 C 0,0 km/h (0 Bft)
06.09.2014 16:05 20,6 C 68 % 1016,8 hPa 0,0 l/m 0,5 km/h (0 Bft) S-SO 157 14,5 C 22,0 C 1,6 km/h (1 Bft)
06.09.2014 16:10 20,6 C 69 % 1016,8 hPa 0,0 l/m 0,5 km/h (0 Bft) S-SW 202 14,7 C 22,0 C 0,0 km/h (0 Bft)
06.09.2014 16:15 20,9 C 69 % 1016,7 hPa 0,0 l/m 0,0 km/h (0 Bft) S 180 15,0 C 22,3 C 0,0 km/h (0 Bft)
06.09.2014 16:20 21,0 C 68 % 1016,7 hPa 0,0 l/m 0,0 km/h (0 Bft) SO 135 14,9 C 22,4 C 1,8 km/h (1 Bft)
06.09.2014 16:25 20,9 C 68 % 1016,7 hPa 0,0 l/m 0,0 km/h (0 Bft) S 180 14,8 C 22,5 C 0,0 km/h (0 Bft)
06.09.2014 16:30 20,6 C 68 % 1016,7 hPa 0,0 l/m 0,0 km/h (0 Bft) S 180 14,5 C 22,6 C 0,0 km/h (0 Bft)
06.09.2014 16:35 20,3 C 68 % 1016,3 hPa 0,0 l/m 0,0 km/h (0 Bft) S-SW 202 14,2 C 22,4 C 0,0 km/h (0 Bft)
06.09.2014 16:40 20,2 C 68 % 1016,3 hPa 0,0 l/m 0,0 km/h (0 Bft) SW 225 14,1 C 22,2 C 0,0 km/h (0 Bft)
06.09.2014 16:45 20,5 C 68 % 1016,3 hPa 0,0 l/m 0,0 km/h (0 Bft) SW 225 14,4 C 22,2 C 0,0 km/h (0 Bft)
06.09.2014 16:50 20,9 C 69 % 1016,3 hPa 0,0 l/m 0,3 km/h (0 Bft) W 270 15,0 C 22,4 C 2,9 km/h (1 Bft)
06.09.2014 16:55 21,1 C 68 % 1016,5 hPa 0,0 l/m 0,5 km/h (0 Bft) W-NW 292 15,0 C 22,4 C 0,0 km/h (0 Bft)
06.09.2014 17:00 21,1 C 67 % 1016,5 hPa 0,0 l/m 1,0 km/h (0 Bft) NW 315 14,7 C 22,4 C 0,0 km/h (0 Bft)
06.09.2014 17:05 21,2 C 67 % 1016,5 hPa 0,0 l/m 1,1 km/h (1 Bft) N-NW 337 14,8 C 22,3 C 1,6 km/h (1 Bft)
06.09.2014 17:10 21,1 C 66 % 1016,5 hPa 0,0 l/m 1,6 km/h (1 Bft) NW 315 14,5 C 22,2 C 3,7 km/h (1 Bft)
06.09.2014 17:15 21,1 C 66 % 1016,6 hPa 0,0 l/m 1,9 km/h (1 Bft) NW 315 14,5 C 22,0 C 0,0 km/h (0 Bft)
06.09.2014 17:20 21,0 C 65 % 1016,6 hPa 0,0 l/m 1,0 km/h (0 Bft) W 270 14,2 C 21,9 C 0,0 km/h (0 Bft)
06.09.2014 17:25 20,4 C 67 % 1016,6 hPa 0,0 l/m 0,0 km/h (0 Bft) O-SO 112 14,1 C 21,9 C 0,0 km/h (0 Bft)
06.09.2014 17:30 20,3 C 66 % 1016,6 hPa 0,0 l/m 0,0 km/h (0 Bft) SO 135 13,7 C 21,8 C 0,0 km/h (0 Bft)
06.09.2014 17:35 20,0 C 66 % 1016,5 hPa 0,0 l/m 0,0 km/h (0 Bft) S 180 13,4 C 21,4 C 0,0 km/h (0 Bft)
06.09.2014 17:40 19,9 C 67 % 1016,5 hPa 0,0 l/m 0,0 km/h (0 Bft) SO 135 13,6 C 21,3 C 0,0 km/h (0 Bft)
06.09.2014 17:45 19,9 C 68 % 1016,5 hPa 0,0 l/m 0,0 km/h (0 Bft) S 180 13,8 C 21,2 C 0,0 km/h (0 Bft)
06.09.2014 17:50 19,7 C 68 % 1016,5 hPa 0,0 l/m 0,0 km/h (0 Bft) S-SO 157 13,6 C 21,1 C 0,0 km/h (0 Bft)
06.09.2014 17:55 19,6 C 70 % 1016,3 hPa 0,0 l/m 0,0 km/h (0 Bft) SO 135 14,0 C 20,8 C 0,0 km/h (0 Bft)
06.09.2014 18:00 19,5 C 70 % 1016,3 hPa 0,0 l/m 0,0 km/h (0 Bft) S-SO 157 13,9 C 20,6 C 0,0 km/h (0 Bft)
06.09.2014 18:05 19,3 C 72 % 1016,3 hPa 0,0 l/m 0,0 km/h (0 Bft) S-SO 157 14,1 C 20,4 C 0,0 km/h (0 Bft)
06.09.2014 18:10 19,2 C 73 % 1016,3 hPa 0,0 l/m 0,0 km/h (0 Bft) S 180 14,2 C 20,3 C 0,0 km/h (0 Bft)
06.09.2014 18:15 19,2 C 74 % 1016,4 hPa 0,0 l/m 0,3 km/h (0 Bft) S 180 14,4 C 20,0 C 3,4 km/h (1 Bft)
06.09.2014 18:20 19,1 C 75 % 1016,4 hPa 0,0 l/m 0,8 km/h (0 Bft) SO 135 14,6 C 19,9 C 0,0 km/h (0 Bft)
06.09.2014 18:25 18,9 C 76 % 1016,4 hPa 0,0 l/m 0,6 km/h (0 Bft) S-SO 157 14,6 C 19,7 C 0,0 km/h (0 Bft)
06.09.2014 18:30 18,7 C 77 % 1016,4 hPa 0,0 l/m 0,0 km/h (0 Bft) S 180 14,6 C 19,5 C 0,0 km/h (0 Bft)
06.09.2014 18:35 18,6 C 77 % 1016,2 hPa 0,0 l/m 0,0 km/h (0 Bft) S 180 14,5 C 19,4 C 0,0 km/h (0 Bft)
06.09.2014 18:40 18,4 C 77 % 1016,2 hPa 0,0 l/m 0,0 km/h (0 Bft) S-SO 157 14,3 C 19,2 C 0,0 km/h (0 Bft)
06.09.2014 18:45 18,3 C 78 % 1016,2 hPa 0,0 l/m 0,0 km/h (0 Bft) S-SO 157 14,4 C 18,9 C 0,0 km/h (0 Bft)
06.09.2014 18:50 18,2 C 78 % 1016,2 hPa 0,0 l/m 0,0 km/h (0 Bft) S-SO 157 14,3 C 18,7 C 0,0 km/h (0 Bft)
06.09.2014 18:55 18,1 C 79 % 1016,2 hPa 0,0 l/m 0,0 km/h (0 Bft) S-SO 157 14,4 C 18,5 C 0,0 km/h (0 Bft)
06.09.2014 19:00 18,0 C 79 % 1016,2 hPa 0,0 l/m 0,0 km/h (0 Bft) S-SO 157 14,3 C 18,4 C 0,0 km/h (0 Bft)
06.09.2014 19:05 17,8 C 79 % 1016,2 hPa 0,0 l/m 0,0 km/h (0 Bft) S-SO 157 14,1 C 18,2 C 0,0 km/h (0 Bft)
06.09.2014 19:10 17,7 C 80 % 1016,2 hPa 0,0 l/m 0,0 km/h (0 Bft) S-SO 157 14,2 C 18,0 C 0,0 km/h (0 Bft)
06.09.2014 19:15 17,6 C 82 % 1016,3 hPa 0,0 l/m 0,3 km/h (0 Bft) S-SO 157 14,5 C 17,8 C 0,0 km/h (0 Bft)
06.09.2014 19:20 17,3 C 81 % 1016,3 hPa 0,0 l/m 0,3 km/h (0 Bft) S-SO 157 14,0 C 17,6 C 2,1 km/h (1 Bft)
06.09.2014 19:25 17,2 C 81 % 1016,3 hPa 0,0 l/m 0,3 km/h (0 Bft) S-SO 157 13,9 C 17,4 C 1,6 km/h (1 Bft)
06.09.2014 19:30 17,0 C 82 % 1016,3 hPa 0,0 l/m 0,3 km/h (0 Bft) SO 135 13,9 C 17,3 C 0,0 km/h (0 Bft)
06.09.2014 19:35 16,9 C 82 % 1016,3 hPa 0,0 l/m 0,2 km/h (0 Bft) S-SO 157 13,8 C 17,2 C 0,0 km/h (0 Bft)
06.09.2014 19:40 16,8 C 82 % 1016,3 hPa 0,0 l/m 0,0 km/h (0 Bft) S-SO 157 13,7 C 17,0 C 0,0 km/h (0 Bft)
06.09.2014 19:45 16,6 C 82 % 1016,3 hPa 0,0 l/m 0,0 km/h (0 Bft) SO 135 13,5 C 16,8 C 0,0 km/h (0 Bft)
06.09.2014 19:50 16,5 C 83 % 1016,3 hPa 0,0 l/m 0,2 km/h (0 Bft) S 180 13,6 C 16,6 C 2,1 km/h (1 Bft)
06.09.2014 19:55 16,4 C 83 % 1016,4 hPa 0,0 l/m 1,1 km/h (1 Bft) S-SW 202 13,5 C 16,4 C 2,3 km/h (1 Bft)
06.09.2014 20:00 16,3 C 84 % 1016,4 hPa 0,0 l/m 2,4 km/h (1 Bft) S 180 13,6 C 16,4 C 5,3 km/h (1 Bft)
06.09.2014 20:05 16,1 C 84 % 1016,4 hPa 0,0 l/m 2,6 km/h (1 Bft) SO 135 13,4 C 16,3 C 0,0 km/h (0 Bft)
06.09.2014 20:10 16,0 C 84 % 1016,4 hPa 0,0 l/m 1,3 km/h (1 Bft) S 180 13,3 C 16,2 C 0,0 km/h (0 Bft)
06.09.2014 20:15 15,9 C 85 % 1016,5 hPa 0,0 l/m 0,0 km/h (0 Bft) S-SW 202 13,4 C 16,0 C 0,0 km/h (0 Bft)
06.09.2014 20:20 15,9 C 85 % 1016,5 hPa 0,0 l/m 0,0 km/h (0 Bft) S-SO 157 13,4 C 15,9 C 0,0 km/h (0 Bft)
06.09.2014 20:25 15,8 C 85 % 1016,5 hPa 0,0 l/m 0,0 km/h (0 Bft) SO 135 13,3 C 15,8 C 0,0 km/h (0 Bft)
06.09.2014 20:28 15,7 C 85 % 1016,5 hPa 0,0 l/m 0,0 km/h (0 Bft) S 180 13,2 C 15,7 C 0,0 km/h (0 Bft)
06.09.2014 20:30 15,7 C 85 % 1016,5 hPa 0,0 l/m 0,0 km/h (0 Bft) S 180 13,2 C 15,7 C 0,0 km/h (0 Bft)
06.09.2014 20:35 15,7 C 85 % 1016,4 hPa 0,0 l/m 0,0 km/h (0 Bft) S-SW 202 13,2 C 15,7 C 0,0 km/h (0 Bft)
06.09.2014 20:40 15,6 C 86 % 1016,4 hPa 0,0 l/m 0,0 km/h (0 Bft) S 180 13,3 C 15,6 C 0,0 km/h (0 Bft)
06.09.2014 20:45 15,6 C 86 % 1016,4 hPa 0,0 l/m 0,6 km/h (0 Bft) S 180 13,3 C 15,5 C 1,8 km/h (1 Bft)
06.09.2014 20:50 15,8 C 86 % 1016,4 hPa 0,0 l/m 1,1 km/h (1 Bft) W-SW 247 13,5 C 15,6 C 3,2 km/h (1 Bft)
06.09.2014 20:55 16,0 C 86 % 1017,1 hPa 0,0 l/m 2,3 km/h (1 Bft) S-SW 202 13,7 C 15,7 C 1,8 km/h (1 Bft)
06.09.2014 21:00 15,9 C 87 % 1017,1 hPa 0,0 l/m 2,1 km/h (1 Bft) W 270 13,7 C 15,7 C 2,7 km/h (1 Bft)
06.09.2014 21:05 15,9 C 86 % 1017,1 hPa 0,0 l/m 1,6 km/h (1 Bft) W 270 13,6 C 15,6 C 1,6 km/h (1 Bft)
06.09.2014 21:10 15,6 C 86 % 1017,1 hPa 0,0 l/m 1,6 km/h (1 Bft) SO 135 13,3 C 15,5 C 0,0 km/h (0 Bft)
06.09.2014 21:15 15,2 C 86 % 1017,3 hPa 0,0 l/m 0,6 km/h (0 Bft) SW 225 12,9 C 15,2 C 0,0 km/h (0 Bft)
06.09.2014 21:20 15,0 C 86 % 1017,3 hPa 0,0 l/m 0,0 km/h (0 Bft) S-SW 202 12,7 C 15,0 C 0,0 km/h (0 Bft)
06.09.2014 21:25 14,7 C 86 % 1017,3 hPa 0,0 l/m 0,0 km/h (0 Bft) S-SO 157 12,4 C 14,8 C 0,0 km/h (0 Bft)
06.09.2014 21:30 14,6 C 86 % 1017,3 hPa 0,0 l/m 0,0 km/h (0 Bft) S-SO 157 12,3 C 14,6 C 0,0 km/h (0 Bft)
06.09.2014 21:35 14,3 C 86 % 1017,3 hPa 0,0 l/m 0,2 km/h (0 Bft) S 180 12,0 C 14,4 C 2,6 km/h (1 Bft)
06.09.2014 21:40 14,4 C 87 % 1017,3 hPa 0,0 l/m 0,8 km/h (0 Bft) S 180 12,3 C 14,3 C 3,2 km/h (1 Bft)
06.09.2014 21:45 14,3 C 87 % 1017,3 hPa 0,0 l/m 1,3 km/h (1 Bft) S-SO 157 12,2 C 14,3 C 0,0 km/h (0 Bft)
06.09.2014 21:50 14,1 C 87 % 1017,3 hPa 0,0 l/m 0,8 km/h (0 Bft) S-SW 202 12,0 C 14,1 C 0,0 km/h (0 Bft)
06.09.2014 21:55 13,9 C 87 % 1017,2 hPa 0,0 l/m 0,0 km/h (0 Bft) S-SO 157 11,8 C 13,9 C 0,0 km/h (0 Bft)
06.09.2014 22:00 13,8 C 87 % 1017,2 hPa 0,0 l/m 0,0 km/h (0 Bft) SW 225 11,7 C 13,9 C 0,0 km/h (0 Bft)
06.09.2014 22:05 14,4 C 88 % 1017,2 hPa 0,0 l/m 0,5 km/h (0 Bft) W 270 12,4 C 13,9 C 1,6 km/h (1 Bft)
06.09.2014 22:10 14,5 C 88 % 1017,2 hPa 0,0 l/m 1,0 km/h (0 Bft) S 180 12,5 C 14,0 C 0,0 km/h (0 Bft)
06.09.2014 22:15 14,5 C 88 % 1017,2 hPa 0,0 l/m 0,6 km/h (0 Bft) S 180 12,5 C 14,0 C 0,0 km/h (0 Bft)
06.09.2014 22:20 14,6 C 89 % 1017,2 hPa 0,0 l/m 0,2 km/h (0 Bft) S 180 12,8 C 14,1 C 0,0 km/h (0 Bft)
06.09.2014 22:25 14,3 C 88 % 1017,2 hPa 0,0 l/m 0,2 km/h (0 Bft) NW 315 12,3 C 14,1 C 0,0 km/h (0 Bft)
06.09.2014 22:30 14,1 C 88 % 1017,2 hPa 0,0 l/m 0,0 km/h (0 Bft) W-NW 292 12,1 C 14,0 C 0,0 km/h (0 Bft)
06.09.2014 22:35 14,1 C 88 % 1017,3 hPa 0,0 l/m 0,6 km/h (0 Bft) W 270 12,1 C 14,1 C 3,9 km/h (1 Bft)
06.09.2014 22:40 14,1 C 88 % 1017,3 hPa 0,0 l/m 1,3 km/h (1 Bft) S 180 12,1 C 14,3 C 3,1 km/h (1 Bft)
06.09.2014 22:45 14,1 C 88 % 1017,3 hPa 0,0 l/m 0,6 km/h (0 Bft) S 180 12,1 C 14,3 C 0,0 km/h (0 Bft)
06.09.2014 22:50 14,0 C 88 % 1017,3 hPa 0,0 l/m 0,0 km/h (0 Bft) W-NW 292 12,0 C 14,2 C 0,0 km/h (0 Bft)
06.09.2014 22:55 14,2 C 88 % 1017,4 hPa 0,0 l/m 0,0 km/h (0 Bft) NW 315 12,2 C 14,2 C 0,0 km/h (0 Bft)
06.09.2014 23:00 14,2 C 88 % 1017,4 hPa 0,0 l/m 0,0 km/h (0 Bft) S 180 12,2 C 14,2 C 0,0 km/h (0 Bft)
06.09.2014 23:05 14,1 C 88 % 1017,4 hPa 0,0 l/m 0,2 km/h (0 Bft) SW 225 12,1 C 14,2 C 2,9 km/h (1 Bft)
06.09.2014 23:10 14,3 C 88 % 1017,4 hPa 0,0 l/m 0,5 km/h (0 Bft) W 270 12,3 C 14,3 C 1,6 km/h (1 Bft)
06.09.2014 23:15 14,4 C 88 % 1017,4 hPa 0,0 l/m 0,8 km/h (0 Bft) SO 135 12,4 C 14,4 C 0,0 km/h (0 Bft)
06.09.2014 23:20 14,2 C 88 % 1017,4 hPa 0,0 l/m 0,3 km/h (0 Bft) S 180 12,2 C 14,3 C 0,0 km/h (0 Bft)
06.09.2014 23:25 14,2 C 88 % 1017,4 hPa 0,0 l/m 0,0 km/h (0 Bft) NW 315 12,2 C 14,3 C 0,0 km/h (0 Bft)
06.09.2014 23:30 14,2 C 88 % 1017,4 hPa 0,0 l/m 0,2 km/h (0 Bft) NW 315 12,2 C 14,3 C 1,6 km/h (1 Bft)
06.09.2014 23:35 14,3 C 88 % 1017,2 hPa 0,0 l/m 0,8 km/h (0 Bft) S 180 12,3 C 14,4 C 2,6 km/h (1 Bft)
06.09.2014 23:40 14,3 C 88 % 1017,2 hPa 0,0 l/m 0,8 km/h (0 Bft) SW 225 12,3 C 14,4 C 0,0 km/h (0 Bft)
06.09.2014 23:45 14,1 C 88 % 1017,2 hPa 0,0 l/m 0,2 km/h (0 Bft) S-SO 157 12,1 C 14,3 C 0,0 km/h (0 Bft)
06.09.2014 23:50 14,1 C 88 % 1017,2 hPa 0,0 l/m 0,0 km/h (0 Bft) NW 315 12,1 C 14,2 C 0,0 km/h (0 Bft)
06.09.2014 23:55 14,0 C 88 % 1017,3 hPa 0,0 l/m 0,0 km/h (0 Bft) N-NW 337 12,0 C 14,0 C 0,0 km/h (0 Bft)
_ Min-Zeit 01:30 12:30 19:10 - 23:55 - - 01:30 05:20 23:55
Minimum _ 11,8 C 43 % 1016,2 hPa - 0,0 km/h (0 Bft) - - 10,2 C 12,2 C 0,0 km/h (0 Bft)
_ Max-Zeit 12:25 05:40 13:10 23:55 13:45 - - 08:55 12:30 13:35
Maximum _ 26,8 C 93 % 1018,1 hPa 0,0 l/m 4,2 km/h
O-NO (1 Bft)
- - 16,8 C 29,9 C 9,5 km/h
N-NO (2 Bft)
Durchschnitt _ 17,1 C 78 % 1017,2 hPa #0,0 l/m 0,7 km/h (0 Bft) NW - 12,8 C 18,9 C 0,9 km/h (0 Bft)